STARLINK-5177 (54090 NORAD) Tracking and Keplerian Element Data

This shows tracking and keplerian element data for the satellite.

Feedback or suggestion? Click here.




ElementValue
Catalog54090
NameSTARLINK-5177
Epoch Orbit549
Epoch Day325.33334491
Epoch Year2022
RAAN350.8864
Inclination53.2149
Eccentricity0.0003746
Argument of Perigee10.0043
Mean Anonmoly339.0101
Mean Motion15.73201558
Decay Rate0.0002192
L11 54090U 22136AR 22325.33334491 .00021920 00000+0 16015-3 0 9995
L22 54090 53.2149 350.8864 0003746 10.0043 339.0101 15.73201558 5498



Live tracking and technical data element details for STARLINK-5177 (NORAD 54090). STARLINK-5177 can be tracked NOW for your location showing map with azimuth and elevation plus other details from your city location.







IsCatalogInMostPopularTable: catalog: 54090, numindb: 1
Update: records affected: 1



GetName: 54090 STARLINK-5177

Hit Count: updated at: Mon, 28 Nov 2022 21:33:20 GMT